Orbital Elements at Epoch 2459000.5 (2020-May-31.0) TDB
Reference: JPL 19 (heliocentric ecliptic J2000)
Element | Value | Uncertainty (1-sigma) | Units |
e | .06281380766525878 | 5.9521e-08 | |
a | 2.669373423922115 | 1.9527e-08 | au |
q | 2.501699915085117 | 1.6468e-07 | au |
i | 1.445340119167771 | 4.2281e-06 | deg |
node | 277.2667427038989 | 0.00024986 | deg |
peri | 118.9531374350279 | 0.00025279 | deg |
M | 255.4254279818527 | 4.1935e-05 | deg |
tp | 2459463.238911323879 (2021-Sep-05.73891132) | 0.00018847 | TDB |
period | 1592.987710699767 4.36 | 1.7479e-05 4.785e-08 | d yr |
n | .2259904439826842 | 2.4797e-09 | deg/d |
Q | 2.837046932759111 | 2.0754e-08 | au |
|
| | Orbit Determination Parameters
Additional Information
|